{"data":{"norad_id":60729,"epoch":"2026-09-21T21:25:35.936256Z","epoch_age_seconds":67787,"freshness":"FRESH","line1":"1 60729U 24152K   26264.89277704  .00000975  00000+0  12908-4 0  9996","line2":"2 60729  53.1588 228.8372 0000911 102.0086 258.1034 15.69706163119789","mean_motion":15.69706163,"eccentricity":9.11e-5,"inclination_deg":53.1588,"raan_deg":228.8372,"arg_perigee_deg":102.0086,"mean_anomaly_deg":258.1034,"bstar":1.2908e-5,"rev_number":11978,"period_min":91.736914458429,"perigee_km":359.12391007948,"apogee_km":360.35155085537,"semimajor_km":6737.8747304674,"source":"CELESTRAK","updated_at":"2026-09-22T09:00:49.278991Z"}}